RH
9 8 7 7 8 8 9 8 8 8 9 9 9 9 9 9 9 9 9 9 8 8 8 8 8 8 9 10 10 10 10 9 9 9 8 8 8 7 7 7 8 9
9 8 7 7 7 7 7 8 7 7 8 8 8 9 9 9 8 8 8 8 8 8 7 7 7 8 8 9 9 9 9 9 9 9 8 8 8 7 7 6 6 7
7 7 7 7 6 6 6 7 7 7 7 8 8 8 9 9 8 8 8 7 8 7 7 7 6 7 7 8 9 8 8 8 8 8 8 8 8 7 7 5 5 6
5 5 6 6 6 6 6 6 7 7 7 7 8 9 9 9 9 8 8 7 7 7 6 6 6 6 7 7 8 8 7 7 6 7 7 8 8 8 7 5 5 6
4 5 5 5 5 5 5 6 6 7 7 7 7 8 9 9 9 8 8 7 6 6 5 6 6 6 6 7 7 7 7 7 6 6 6 7 7 7 7 6 5 5
4 4 5 5 5 5 5 5 5 5 6 6 6 7 7 8 8 7 7 6 6 5 5 5 5 5 6 6 6 6 6 6 6 6 6 6 6 6 7 6 5 5
4 4 4 4 4 4 4 3 4 4 4 5 5 6 6 7 7 7 6 5 5 5 4 4 4 4 5 5 5 5 5 5 5 5 6 5 6 6 6 6 6 5
3 3 3 3 3 3 3 3 3 3 3 3 4 4 5 5 5 5 5 5 4 4 4 4 3 3 4 4 4 4 4 4 4 5 5 5 5 6 6 6 5 5
2 2 2 2 2 2 3 2 2 2 2 3 3 3 3 4 4 4 4 4 3 3 3 3 3 3 3 3 3 4 4 4 4 4 4 5 5 5 5 5 5 5
2 2 2 2 2 2 2 2 2 2 2 2 3 3 3 3 3 3 3 3 3 3 3 3 3 3 3 3 3 3 3 3 3 4 4 4 5 5 5 5 5 5
2 2 2 2 2 2 2 2 2 2 2 2 2 2 3 3 3 3 3 3 3 3 3 2 3 3 3 3 3 3 3 3 3 3 4 4 4 5 5 4 5 5
3 3 2 2 2 2 2 2 2 2 2 2 2 2 3 2 3 3 3 3 3 3 3 2 2 2 2 2 2 3 3 3 3 3 3 4 4 4 5 4 5 6
3 3 3 3 3 2 3 2 2 3 2 3 3 2 3 3 3 3 3 3 3 3 3 3 2 2 2 2 2 2 3 2 3 3 3 3 4 4 4 5 5 6
3 3 3 3 3 3 3 3 2 3 2 3 3 3 3 3 3 3 3 3 3 3 3 3 3 3 2 3 2 2 3 2 2 3 3 3 4 4 4 5 5 6
3 4 3 3 3 3 3 3 3 3 2 3 3 2 3 2 2 3 3 3 3 3 3 3 3 3 3 3 3 2 2 2 2 3 3 3 4 4 4 5 5 6
3 4 3 3 3 3 3 3 3 3 3 3 3 2 3 3 2 3 3 3 3 2 3 3 2 3 3 2 3 2 2 2 2 3 3 3 4 4 4 5 5 6
4 4 3 3 3 3 3 3 3 3 2 2 3 2 3 2 2 3 3 3 3 2 2 3 2 3 3 2 2 2 2 3 2 3 3 3 4 4 4 5 5 5
4 4 3 3 3 3 3 3 2 3 2 2 3 2 3 3 2 3 3 2 3 2 2 2 2 2 2 2 2 2 2 3 2 3 3 3 4 4 4 5 5 5
4 4 4 4 4 3 3 3 2 3 2 2 3 2 3 3 2 3 3 2 2 2 2 2 2 2 2 2 2 2 3 3 2 3 3 3 4 4 4 5 5 5
4 4 4 4 4 3 3 3 3 3 3 3 3 3 3 3 3 3 3 2 2 2 2 2 2 2 2 2 2 3 2 3 3 3 3 3 3 4 4 4 4 5
4 4 4 4 4 3 3 3 3 3 3 3 3 3 3 3 3 3 2 2 2 2 2 2 2 2 2 2 2 3 3 3 3 3 3 3 3 4 4 4 4 4
4 4 4 3 3 3 3 3 3 3 3 3 3 3 3 3 3 3 2 2 2 2 2 2 2 2 2 2 2 3 3 3 3 3 3 3 3 3 4 4 4 4
3 3 3 3 3 3 3 3 3 3 3 3 3 3 3 3 3 2 2 2 2 2 2 2 2 2 2 3 3 3 3 3 3 3 3 3 3 3 4 4 4 4
3 3 3 3 3 3 2 3 3 3 3 2 2 3 2 2 3 2 2 2 2 2 2 2 2 2 2 3 3 3 3 3 3 3 3 3 3 3 4 4 4 5
3 3 3 2 3 2 2 3 2 2 3 2 2 2 2 2 2 2 2 2 2 2 2 2 2 2 3 3 3 3 3 3 3 3 3 3 3 3 4 4 4 5
2 2 2 2 2 2 2 2 2 2 2 2 2 2 2 2 2 2 2 2 2 2 2 2 2 2 2 3 3 3 3 3 3 3 3 3 3 4 4 4 5 5
Wind_Speed
99 97 95 92 92 92 93 93 92 91 91 91 92 93 94 95 95 95 96 97 97 96 95 94 93 92 93 93 93 93 92 91 91 91 90 90 90 89 88 87 87 87
98 97 96 93 92 92 92 92 91 89 89 90 91 92 94 94 94 94 95 96 97 97 96 95 93 93 93 93 93 93 92 91 91 91 91 90 90 90 88 87 86 86
93 94 94 93 92 91 90 90 89 88 87 88 89 91 93 94 93 93 94 95 96 97 97 95 94 94 94 93 93 93 93 92 91 91 91 90 91 91 90 88 86 85
89 89 90 91 91 91 89 88 88 87 86 86 87 89 92 94 93 93 94 95 96 96 96 95 95 94 93 93 93 93 93 93 91 91 90 90 91 92 92 89 86 83
85 86 86 88 89 89 88 86 85 86 86 85 85 87 90 92 92 92 93 94 95 95 95 94 94 93 92 91 92 93 93 92 91 90 90 90 90 92 92 91 87 82
82 83 84 85 86 87 86 84 83 83 83 83 83 85 87 90 91 92 92 92 93 93 94 93 91 91 91 90 90 92 91 90 90 90 89 89 90 91 91 91 88 83
80 81 81 81 83 84 84 83 81 79 79 79 80 82 85 87 89 91 91 91 91 90 91 91 90 89 89 88 89 90 90 89 88 88 88 89 89 89 89 89 88 84
78 78 78 78 79 80 81 81 79 76 75 75 76 79 82 84 87 89 90 90 89 88 89 89 89 88 87 86 87 88 89 87 86 86 86 87 87 87 87 86 85 83
75 75 75 75 75 76 77 78 77 75 72 72 72 75 79 82 85 87 88 88 87 87 87 87 87 87 86 85 86 87 87 86 84 83 84 84 84 84 84 83 82 80
73 72 72 72 73 73 74 74 74 73 71 70 71 73 76 78 81 84 85 86 85 84 85 85 85 85 84 84 84 85 86 84 82 81 80 80 80 81 81 80 78 76
71 70 70 70 71 71 72 72 72 71 70 70 70 71 73 75 77 79 82 83 82 81 81 81 82 82 82 81 81 82 83 82 80 78 77 76 77 78 78 76 74 72
69 69 69 69 69 70 70 71 71 70 70 69 70 70 71 73 74 76 78 80 80 79 78 78 78 77 77 77 76 77 79 79 76 74 73 73 74 74 73 72 71 69
66 66 67 67 68 69 69 70 69 69 69 68 69 69 70 71 72 74 76 77 77 78 78 77 76 75 74 74 72 72 73 73 71 69 69 69 69 69 68 68 68 67
63 64 64 65 66 67 68 69 68 68 67 67 67 68 68 70 71 71 73 74 75 76 77 77 75 74 73 72 70 69 69 68 66 65 66 65 64 64 65 66 66 65
61 61 62 63 64 65 66 67 67 67 66 66 66 66 66 67 68 69 70 72 73 74 75 75 74 73 72 71 69 67 66 63 62 62 62 61 61 61 62 63 63 63
58 59 60 61 63 64 64 65 66 66 66 66 65 64 63 64 65 64 65 68 70 71 71 71 71 71 70 69 67 65 63 60 58 59 58 58 58 59 59 60 61 61
55 56 58 59 61 62 63 63 64 65 65 65 64 62 62 62 61 60 61 65 67 68 68 67 67 68 68 65 63 62 61 58 56 56 56 55 56 57 57 58 59 60
52 53 55 57 58 58 59 60 61 61 61 60 59 59 60 60 59 59 60 62 63 64 64 63 63 63 63 62 59 58 58 56 53 53 52 53 54 55 55 57 58 59
49 50 52 54 55 55 56 56 57 56 56 55 55 55 56 58 58 58 59 60 60 59 59 59 57 56 57 57 55 54 55 54 51 50 49 50 51 52 55 57 58 57
47 48 51 52 53 53 54 54 54 53 53 53 53 53 55 55 55 56 58 59 58 56 55 54 53 51 52 51 51 51 51 51 50 48 47 47 48 51 55 57 56 55
44 46 49 51 52 52 52 53 52 52 52 52 51 51 52 52 52 54 56 56 55 52 50 49 48 48 47 46 46 47 48 48 48 48 46 46 47 50 53 54 53 52
41 43 47 49 50 50 51 50 50 50 50 49 49 49 49 49 50 51 53 52 50 48 46 44 43 43 42 40 41 44 45 46 47 46 45 45 46 48 50 50 49 48
39 40 43 45 47 47 47 46 46 47 47 47 47 47 46 46 47 48 48 46 43 43 42 39 37 37 37 36 37 40 42 42 44 44 42 42 43 45 46 46 45 43
36 37 39 41 43 45 44 42 41 42 44 44 44 43 43 43 44 43 42 39 38 38 37 33 30 31 32 32 33 36 38 38 39 40 38 38 39 40 41 42 41 41
34 35 36 38 41 42 41 39 38 39 40 40 40 39 39 40 39 38 36 35 33 32 30 27 26 26 28 29 30 31 33 33 34 35 34 34 35 36 37 38 38 40
32 33 35 36 37 38 38 36 36 37 37 37 36 36 36 36 35 33 32 30 27 26 25 24 23 24 25 26 26 27 28 29 30 31 31 31 31 33 34 35 37 40
Wind_Direction
278 277 276 274 274 274 273 272 271 270 270 269 269 269 268 267 266 266 266 266 266 265 264 263 263 263 264 265 266 266 267 267 268 268 268 268 268 267 266 266 266 267
277 277 276 275 274 273 272 272 271 270 270 270 270 270 269 268 267 267 267 266 266 266 265 264 263 263 263 264 265 265 265 266 266 267 267 268 268 268 267 266 265 266
274 274 274 274 273 272 271 271 271 270 269 269 270 270 270 269 269 268 267 266 266 266 265 265 264 263 263 264 265 265 265 264 265 265 266 267 268 268 268 267 266 265
273 272 272 272 272 271 271 270 270 270 269 268 268 269 269 269 269 268 267 266 265 265 265 265 264 264 264 264 265 265 265 264 264 264 265 266 267 268 268 268 266 265
274 273 272 272 271 271 270 269 269 268 268 267 267 267 268 268 268 267 266 265 265 265 265 265 264 264 264 264 264 265 265 265 265 264 265 265 266 267 268 269 268 266
273 272 271 271 270 270 270 268 267 266 266 266 266 266 266 266 266 266 265 265 265 265 265 265 264 264 264 264 264 264 265 265 265 265 265 265 265 265 267 268 268 268
271 271 270 269 269 270 270 269 268 266 265 265 265 265 264 264 265 265 265 265 264 265 265 265 265 264 264 264 264 264 264 264 264 264 265 264 265 265 266 267 268 268
272 271 271 270 269 270 270 271 270 268 266 264 263 263 263 263 263 263 264 265 265 265 265 265 265 265 264 264 264 264 264 263 263 264 264 264 265 265 265 266 267 269
273 273 272 271 270 270 270 270 270 268 267 265 263 262 262 262 263 263 264 265 265 265 265 265 265 265 264 264 264 264 264 264 263 263 263 264 264 265 265 266 267 268
275 275 273 272 271 271 270 270 269 268 267 265 263 262 261 262 262 263 264 264 264 264 264 264 264 264 264 264 264 264 264 264 264 264 263 263 263 264 265 265 266 267
277 276 276 275 274 273 272 271 271 270 268 267 265 263 262 262 262 263 263 264 264 264 264 263 264 264 264 263 263 264 264 264 264 264 264 263 262 263 264 265 265 266
277 277 277 276 275 274 273 272 272 271 270 269 267 266 265 265 264 264 265 265 266 266 266 265 265 265 265 265 264 264 264 264 265 264 263 262 262 262 263 264 264 264
277 276 276 275 274 274 273 272 271 271 270 269 268 268 267 266 266 265 266 266 267 268 268 268 267 267 267 267 266 265 265 265 265 265 263 262 262 262 262 262 262 263
276 275 275 274 273 272 272 271 271 270 269 268 268 267 266 266 265 265 265 266 266 267 267 268 269 269 269 269 269 268 267 267 266 265 264 262 261 260 260 260 261 261
274 274 273 272 272 271 271 271 271 270 270 269 267 267 266 265 265 265 265 265 265 265 266 267 268 269 269 269 270 270 270 269 267 265 264 262 261 259 258 258 259 260
273 272 271 271 271 271 271 271 271 271 271 271 270 270 269 268 267 266 266 265 265 264 264 265 266 267 268 268 269 269 270 269 268 265 264 263 261 259 257 257 258 259
274 273 272 271 270 270 270 270 270 270 271 271 272 273 273 272 271 270 268 266 265 265 264 264 264 265 267 267 267 268 268 268 267 265 263 262 260 257 256 256 256 258
275 275 274 273 272 272 271 270 270 270 270 271 272 273 274 275 275 274 271 268 266 265 265 264 264 265 266 267 266 266 267 267 266 264 262 260 258 256 254 253 254 256
278 277 277 276 276 275 274 274 274 274 274 274 274 274 274 274 275 274 271 269 268 267 266 265 265 264 265 266 266 266 266 266 265 263 260 257 255 253 251 251 253 255
280 279 278 278 277 277 277 277 277 277 277 276 276 275 274 273 273 271 269 269 268 267 265 265 265 264 264 265 265 265 264 264 264 261 258 255 251 249 248 250 252 254
278 277 277 276 277 277 278 278 278 278 277 276 275 273 272 272 270 267 267 267 267 266 264 263 263 263 263 263 263 263 263 263 262 260 257 253 249 247 247 249 251 253
277 276 276 276 276 276 277 278 278 277 276 275 274 272 271 269 266 265 265 267 267 266 264 261 260 262 262 262 261 261 262 261 260 258 256 252 249 247 247 248 250 252
277 276 276 277 277 277 277 277 276 275 274 273 272 270 268 266 265 265 266 267 267 265 262 260 260 261 263 262 260 259 260 259 259 258 257 253 250 248 247 248 249 250
280 280 280 280 280 279 279 278 275 273 272 271 269 267 266 265 265 265 266 265 264 262 261 260 259 261 262 262 259 258 258 259 259 258 256 254 250 248 247 247 247 246
286 285 284 283 282 282 282 280 277 273 271 269 267 266 264 263 264 264 263 262 260 259 258 258 257 258 259 259 258 258 258 258 257 255 254 251 249 247 245 244 243 242
291 289 288 285 284 283 282 280 277 273 271 269 267 265 264 263 263 261 259 257 256 254 253 254 254 255 255 256 256 255 255 253 252 251 250 248 246 245 243 241 240 241